Location: Palomar Observatory
(33.3560°N, 116.8630°W)
Time: 21:36:34
(UTC-07:00)

Iridium 57 - Visible Passes

Search period start: 18 April 2015 00:00
Search period end: 28 April 2015 00:00
Orbit: 776 x 779 km, 86.4° (Epoch: 18 April)

Date Brightness Start Highest point End Pass type
(mag) Time Alt. Az. Time Alt. Az. Time Alt. Az.
18 Apr 8.4 02:54:48 10° E 02:55:45 11° E 02:57:04 10° ENE visible
18 Apr 5.4 04:33:37 33° SSW 04:35:58 66° W 04:41:09 10° N visible
19 Apr 5.8 04:00:34 38° SSE 04:02:27 63° E 04:07:37 10° N visible
19 Apr 7.4 05:41:55 10° W 05:43:46 11° WNW 05:45:14 10° WNW visible
20 Apr 7.0 03:27:30 27° ESE 03:29:02 32° E 03:33:39 10° NNE visible
20 Apr 6.7 05:08:00 19° WSW 05:09:50 23° W 05:13:50 10° NNW visible
21 Apr 7.9 02:54:23 15° E 02:55:41 17° E 02:59:01 10° NE visible
21 Apr 5.9 04:34:53 37° WSW 04:36:05 44° W 04:41:03 10° NNW visible
22 Apr 5.4 04:01:44 66° S 04:02:30 86° W 04:07:45 10° N visible
23 Apr 6.2 03:28:34 46° ESE 03:29:02 48° E 03:34:03 10° NNE visible
23 Apr 7.1 05:09:03 15° W 05:10:08 15° WNW 05:12:59 10° NW visible
24 Apr 7.3 02:55:22 24° E 02:55:38 25° E 02:59:52 10° NNE visible
24 Apr 6.4 04:35:51 29° W 04:36:16 29° W 04:40:45 10° NNW visible
25 Apr 8.1 02:22:08 12° E 02:22:19 12° E 02:24:37 10° NE visible
25 Apr 5.5 04:02:38 57° W 04:02:38 57° W 04:07:44 10° N visible
26 Apr 5.7 03:29:23 70° ENE 03:29:23 70° ENE 03:34:16 10° N visible
27 Apr 6.8 02:56:07 36° ENE 02:56:07 36° ENE 03:00:24 10° NNE visible
27 Apr 6.9 04:36:36 20° WNW 04:36:36 20° WNW 04:40:11 10° NNW visible
